Weather History for KLMO - August, 2014

Change the Weather History Date:

Saturday, August 16, 2014

  Actual Average (KBJC) Record (KBJC)
Temperature  
Mean Temperature 74 °F -  
Max Temperature 92 °F 83 °F 102 °F (2002)
Min Temperature 55 °F 59 °F 50 °F (2008)
Cooling Degree Days 8    
Growing Degree Days 24 (Base 50)    
Moisture  
Dew Point 47 °F    
Average Humidity 45    
Maximum Humidity 79    
Minimum Humidity 15    
Precipitation  
Precipitation 0.00 in - - ()
Sea Level Pressure  
Sea Level Pressure 30.14 in    
Wind  
Wind Speed 2 mph (North)    
Max Wind Speed 12 mph    
Max Gust Speed 18 mph    
Visibility 9 miles    
Events      
Averages and records for this station are not official NWS values.
T = Trace of Precipitation, MM = Missing Value Source: NWS Daily Summary

Daily Weather History Graph

Daily Weather History Graph

Search for Another Location

Airport or City:

Trip Planner

Search our weather history database for the weather conditions in past years. The results will help you decide how hot, cold, wet, or windy it might be!

Date:

Astronomy

Aug. 16, 2014 Rise Set
Actual Time 6:12 AM MDT 7:56 PM MDT
Civil Twilight 5:43 AM MDT 8:25 PM MDT
Nautical Twilight 5:08 AM MDT 9:00 PM MDT
Astronomical Twilight 4:31 AM MDT 9:37 PM MDT
Moon 11:41 PM MDT (8/16) 1:02 PM MDT (8/16)
Length of Visible Light 14h 41m
Length of Day
13h 43m
Waning Gibbous, 58% of the Moon is Illuminated
Aug 16
Waning Gibbous
Aug 17
Last Quarter
Aug 25
New
Sep 2
First Quarter
Sep 8
Full

Hourly Weather History & Observations

Time (MDT) Temp. Heat Index Dew Point Humidity Pressure Visibility Wind Dir Wind Speed Gust Speed Precip Events Conditions
12:14 AM 62.6 °F - 52.9 °F 70% 30.11 in 10.0 mi Calm Calm - N/A   Clear
12:34 AM 62.4 °F - 52.9 °F 71% 30.11 in 10.0 mi Calm Calm - N/A   Clear
12:54 AM 60.1 °F - 52.9 °F 77% 30.10 in 10.0 mi Calm Calm - N/A   Clear
1:14 AM 60.6 °F - 52.7 °F 75% 30.11 in 10.0 mi Calm Calm - N/A   Clear
1:34 AM 60.1 °F - 51.8 °F 74% 30.11 in 10.0 mi Calm Calm - N/A   Clear
1:54 AM 61.0 °F - 53.1 °F 75% 30.11 in 7.0 mi Calm Calm - N/A   Clear
2:14 AM 61.0 °F - 52.9 °F 75% 30.11 in 10.0 mi Calm Calm - N/A   Clear
2:34 AM 60.4 °F - 52.0 °F 74% 30.11 in 7.0 mi Calm Calm - N/A   Clear
2:54 AM 59.2 °F - 51.4 °F 75% 30.11 in 10.0 mi Calm Calm - N/A   Clear
3:14 AM 59.5 °F - 52.2 °F 77% 30.11 in 7.0 mi Calm Calm - N/A   Clear
3:34 AM 58.5 °F - 51.8 °F 79% 30.12 in 10.0 mi Calm Calm - N/A   Clear
3:54 AM 58.5 °F - 50.9 °F 76% 30.12 in 7.0 mi Calm Calm - N/A   Clear
4:14 AM 58.8 °F - 50.0 °F 73% 30.13 in 10.0 mi Calm Calm - N/A   Clear
4:34 AM 57.4 °F - 49.8 °F 76% 30.13 in 7.0 mi Calm Calm - N/A   Clear
4:54 AM 55.9 °F - 49.3 °F 78% 30.14 in 7.0 mi Calm Calm - N/A   Clear
5:14 AM 57.0 °F - 49.1 °F 75% 30.15 in 7.0 mi WNW 3.5 mph - N/A   Clear
5:34 AM 57.4 °F - 48.6 °F 72% 30.15 in 7.0 mi WNW 4.6 mph - N/A   Clear
5:54 AM 56.3 °F - 49.1 °F 77% 30.15 in 10.0 mi West 4.6 mph - N/A   Clear
6:14 AM 57.0 °F - 48.6 °F 73% 30.16 in 5.0 mi Calm Calm - N/A   Haze
6:34 AM 58.1 °F - 48.4 °F 70% 30.16 in 5.0 mi Calm Calm - N/A   Haze
6:54 AM 57.4 °F - 49.8 °F 76% 30.17 in 5.0 mi Calm Calm - N/A   Haze
7:14 AM 60.4 °F - 49.8 °F 68% 30.17 in 7.0 mi Calm Calm - N/A   Clear
7:34 AM 63.1 °F - 52.3 °F 68% 30.17 in 7.0 mi Calm Calm - N/A   Clear
7:54 AM 67.6 °F - 55.2 °F 64% 30.17 in 5.0 mi Calm Calm - N/A   Haze
8:14 AM 71.4 °F - 57.4 °F 61% 30.17 in 7.0 mi Calm Calm - N/A   Clear
8:34 AM 75.2 °F - 55.9 °F 51% 30.17 in 7.0 mi Calm Calm - N/A   Clear
8:54 AM 76.3 °F - 56.5 °F 50% 30.18 in 5.0 mi Calm Calm - N/A   Haze
9:14 AM 79.0 °F - 53.6 °F 41% 30.18 in 10.0 mi Calm Calm - N/A   Clear
9:34 AM 82.4 °F 81.3 °F 53.1 °F 36% 30.18 in 7.0 mi Calm Calm - N/A   Scattered Clouds
9:54 AM 82.6 °F - 52.9 °F 36% 30.17 in 10.0 mi Calm Calm - N/A   Clear
10:14 AM 85.3 °F - 47.1 °F 26% 30.18 in 7.0 mi Calm Calm - N/A   Clear
10:34 AM 85.8 °F - 46.0 °F 25% 30.18 in 10.0 mi Calm Calm - N/A   Clear
10:54 AM 88.5 °F - 45.0 °F 22% 30.18 in 10.0 mi NW 3.5 mph - N/A   Clear
11:14 AM 89.6 °F - 43.0 °F 20% 30.17 in 10.0 mi NNW 6.9 mph - N/A   Clear
11:34 AM 90.0 °F - 39.9 °F 17% 30.17 in 10.0 mi NNW 8.1 mph - N/A   Clear
11:54 AM 90.0 °F - 42.1 °F 19% 30.17 in 10.0 mi Calm Calm - N/A   Clear
12:14 PM 91.4 °F - 36.9 °F 15% 30.17 in 10.0 mi WNW 5.8 mph - N/A   Clear
12:34 PM 91.8 °F - 37.0 °F 15% 30.17 in 10.0 mi NW 6.9 mph - N/A   Clear
12:54 PM 92.5 °F - 38.5 °F 15% 30.16 in 10.0 mi Calm Calm - N/A   Clear
1:14 PM 92.8 °F - 41.0 °F 16% 30.15 in 10.0 mi East 9.2 mph - N/A   Clear
1:34 PM 90.9 °F - 45.5 °F 21% 30.15 in 10.0 mi East 11.5 mph - N/A   Clear
1:54 PM 91.4 °F - 42.3 °F 18% 30.15 in 10.0 mi ENE 11.5 mph 18.4 mph N/A   Clear
2:14 PM 91.6 °F - 43.5 °F 19% 30.15 in 10.0 mi East 9.2 mph - N/A   Clear
2:34 PM 92.1 °F - 42.4 °F 18% 30.15 in 10.0 mi ENE 10.4 mph - N/A   Clear
2:54 PM 91.9 °F - 40.5 °F 17% 30.14 in 10.0 mi ENE 4.6 mph - N/A   Clear
3:14 PM 92.7 °F - 41.7 °F 17% 30.14 in 10.0 mi East 4.6 mph - N/A   Clear
3:34 PM 92.3 °F - 42.6 °F 18% 30.13 in 10.0 mi East 6.9 mph - N/A   Clear
3:54 PM 92.8 °F - 42.3 °F 17% 30.13 in 10.0 mi ENE 8.1 mph - N/A   Clear
4:14 PM 92.8 °F - 39.6 °F 16% 30.12 in 10.0 mi ENE 4.6 mph - N/A   Clear
4:34 PM 92.3 °F - 41.4 °F 17% 30.12 in 10.0 mi East 3.5 mph - N/A   Clear
4:54 PM 92.5 °F - 39.7 °F 16% 30.11 in 10.0 mi ENE 4.6 mph - N/A   Clear
5:14 PM 92.8 °F - 40.5 °F 16% 30.11 in 10.0 mi Calm Calm - N/A   Clear
5:34 PM 91.8 °F - 39.0 °F 16% 30.11 in 10.0 mi East 4.6 mph - N/A   Clear
5:54 PM 90.7 °F - 42.1 °F 18% 30.11 in 10.0 mi East 3.5 mph - N/A   Clear
6:14 PM 90.0 °F - 43.0 °F 19% 30.11 in 10.0 mi ENE 3.5 mph - N/A   Clear
6:34 PM 89.6 °F - 43.9 °F 20% 30.11 in 10.0 mi Calm Calm - N/A   Clear
6:54 PM 87.3 °F - 42.8 °F 21% 30.11 in 10.0 mi ESE 3.5 mph - N/A   Clear
7:14 PM 86.9 °F - 44.8 °F 23% 30.11 in 10.0 mi Calm Calm - N/A   Clear
7:34 PM 85.3 °F - 43.7 °F 23% 30.11 in 10.0 mi Calm Calm - N/A   Clear
7:54 PM 79.7 °F - 49.6 °F 35% 30.12 in 10.0 mi WSW 3.5 mph - N/A   Clear
8:14 PM 72.5 °F - 55.6 °F 55% 30.13 in 10.0 mi WNW 6.9 mph - N/A   Clear
8:34 PM 71.1 °F - 51.8 °F 50% 30.13 in 10.0 mi West 5.8 mph - N/A   Clear
8:54 PM 68.5 °F - 52.0 °F 55% 30.14 in 10.0 mi Calm Calm - N/A   Clear
9:14 PM 69.3 °F - 49.6 °F 50% 30.15 in 10.0 mi West 5.8 mph - N/A   Clear
9:34 PM 71.1 °F - 48.9 °F 45% 30.15 in 10.0 mi WNW 6.9 mph - N/A   Clear
9:54 PM 68.5 °F - 49.6 °F 51% 30.15 in 10.0 mi West 5.8 mph - N/A   Clear
10:14 PM 69.3 °F - 48.0 °F 47% 30.15 in 10.0 mi WSW 3.5 mph - N/A   Clear
10:34 PM 69.6 °F - 46.2 °F 43% 30.15 in 10.0 mi WSW 4.6 mph - N/A   Clear
10:54 PM 69.8 °F - 44.8 °F 41% 30.14 in 10.0 mi West 6.9 mph - N/A   Clear
11:14 PM 68.0 °F - 47.7 °F 48% 30.14 in 10.0 mi WSW 3.5 mph - N/A   Clear
11:34 PM 64.9 °F - 50.5 °F 60% 30.14 in 10.0 mi Calm Calm - N/A   Clear
11:54 PM 67.3 °F - 48.2 °F 50% 30.14 in 7.0 mi Calm Calm - N/A   Clear